CZ-3C DEB, 39347

Orbit data source: Space-Track

CZ-3C DEB, 39347 is space debris in HEO originally from a launch on Sun, 31 Oct 2010 UTC launched from the Xichang Space Center, China (XSC). Debris objects in space refer to the collection of defunct objects orbiting the Earth. Examples of debris include non-operational satellites, rocket bodies, and fragments generated from explosions, collisions, or faulty payload assembly.

Loading next visibility...
Identifier
39347, 2010-057M
Orbit
HEO
Country
Flag of CNCN / PRC
Related business
Manufacturer
CALT
Mission
Spacecraft
Bus & Motor
Unknown
Mass
Unknown
Launch date (UTC)
2010-10-31 (15 years ago)
Launch vehicle
Unknown
Launch site
Xichang Space Center, China (XSC)
Object type
Payload
Rocket body
Debris
Shape & HBR
Unknown shape, 0.9 m
Radar Cross Section
Large (>1 m²)

Expand to show TLE details & history
Last TLE update: 1 day ago

TLE from 1 day ago
0 CZ-3C DEB
1 39347U 10057M   26106.63557163  .00006437  00000-0  39274-2 0  9997
2 39347  20.3321 301.3279 6616703  19.7887 357.0247  3.11129740120260
Epoch: 2026-04-16T15:15Z
TLE epoch observation values (Epoch: 2026-04-16T15:15:13.388Z)
Latitude
0.00013°
Longitude
-132.28908°
Altitude
496.688 km
Speed
9.79 km/s
True Right ascension
20h 05m 11s
True Declination
0° 00' 00"
Sunlit
Object was in daylight at epoch
Visualization orbit readout
Latitude
Unknown
Longitude
Unknown
Altitude
Unknown
Speed
Unknown
Apparent Right ascension
Unknown
Apparent Declination
Unknown
Sunlit
N/A
Visualization observer readout
Local Sidereal Time
01:39:05
Azimuth
Unknown
Elevation
Unknown
Doppler factor
Unknown
Orbital elements
Apogee altitude
26,563.654 km
Perigee altitude
329.082 km
Semi-major axis
19,824.505 km
Eccentricity
0.66167
Inclination
20.3321°
RAAN
301.3279°
Arg. of periapsis
19.7887°
True anomaly
340.80117°
Mean anomaly
357.0247°
Eccentric anomaly
351.27186°
Mean motion
0.77757 °/min
Orbital period
462.98 mins
BSTAR
0.0039274
Loading maneuver chart data...
Computing Atmospheric mass density...
Loading historical data...
Loading historical data...
Loading historical data...
Loading historical data...
Loading historical data...
Loading historical data...
Loading historical data...

Documentation

Showing up to 5 results
|